User: anonymous   Login
Location: Dillon
(41.1766°N, 107.0923°W)
Time: 10:17:10
(UTC+00:00)
Language:

CBERS 4A - Orbit

View from above orbital plane
View from above orbital plane
View from above satellite
View from above satellite

Ground track
Ground track

The orbit data is extracted from the following two-line orbital elements,

1 44883U 19093E   22333.74253844  .00000746  00000-0  10169-3 0  9996
2 44883  97.8840  50.6542 0001686  80.0707 280.0699 14.81559745159266
Epoch (UTC): 29 November 2022 17:49:15
Eccentricity: 0.0001686
inclination: 97.8840°
perigee height: 623 km
apogee height: 625 km
right ascension of ascending node: 50.6542°
argument of perigee: 80.0707°
revolutions per day: 14.81559745
mean anomaly at epoch: 280.0699°
orbit number at epoch: 15926

The dashed part of the orbit path shows where the satellite is in the earth's shadow,  

DLR